Sturgeon Bay, WI

4:57 AM CDT on October 16, 2019 (GMT -0500)
Door County Cherryland

Weather History for KSUE - August, 2019

Change the Weather History Date:

Wednesday, August 7, 2019

  Actual Average Record
Temperature  
Mean Temperature 72 °F -  
Max Temperature 82 °F 78 °F 93 °F (2001)
Min Temperature 62 °F 58 °F 42 °F (1989)
Cooling Degree Days 7    
Growing Degree Days 22 (Base 50)    
Moisture  
Dew Point 63 °F    
Average Humidity 85    
Maximum Humidity 97    
Minimum Humidity 56    
Precipitation  
Precipitation 1.02 in - - ()
Sea Level Pressure  
Sea Level Pressure 29.75 in    
Wind  
Wind Speed 7 mph (SW)    
Max Wind Speed 33 mph    
Max Gust Speed 40 mph    
Visibility 9 miles    
Events Rain , Thunderstorm    
Averages and records for this station are not official NWS values.
T = Trace of Precipitation, MM = Missing Value Source: NWS Daily Summary

Daily Weather History Graph

Daily Weather History Graph

Search for Another Location

Airport or City:

Astronomy

Aug. 07, 2019 Rise Set
Actual Time 5:42 AM CDT 8:08 PM CDT
Civil Twilight 5:09 AM CDT 8:40 PM CDT
Nautical Twilight 4:28 AM CDT 9:21 PM CDT
Astronomical Twilight 3:41 AM CDT 10:07 PM CDT
Moon 1:33 PM CDT (8/7) No Moon Set
Length of Visible Light 15h 31m
Length of Day
14h 25m
Waxing Crescent, 50% of the Moon is Illuminated
Aug 7
Waxing Crescent
Aug 7
First Quarter
Aug 15
Full
Aug 23
Last Quarter
Aug 30
New

Hourly Weather History & Observations

Time (CDT) Temp. Heat Index Dew Point Humidity Pressure Visibility Wind Dir Wind Speed Gust Speed Precip Events Conditions
12:56 AM 64.9 °F - 61.0 °F 87% 29.81 in 10.0 mi South 5.8 mph - N/A   Scattered Clouds
1:56 AM 64.9 °F - 61.0 °F 87% 29.80 in 10.0 mi South 6.9 mph - N/A   Clear
2:56 AM 63.0 °F - 61.0 °F 93% 29.80 in 10.0 mi SSW 4.6 mph - N/A   Clear
3:56 AM 63.0 °F - 61.0 °F 93% 29.79 in 10.0 mi South 4.6 mph - N/A   Clear
4:56 AM 62.1 °F - 61.0 °F 96% 29.79 in 9.0 mi SSW 4.6 mph - N/A   Clear
5:56 AM 63.0 °F - 61.0 °F 93% 29.80 in 10.0 mi SSW 3.5 mph - N/A   Clear
6:36 AM 64.4 °F - 62.6 °F 94% 29.81 in 10.0 mi Calm Calm - N/A   Scattered Clouds
6:56 AM 64.9 °F - 63.0 °F 93% 29.79 in 10.0 mi SSW 3.5 mph - N/A   Scattered Clouds
7:56 AM 70.0 °F - 64.0 °F 81% 29.79 in 10.0 mi WSW 4.6 mph - N/A   Clear
8:26 AM 71.6 °F - 64.4 °F 78% 29.80 in 10.0 mi WSW 5.8 mph - N/A   Partly Cloudy
8:56 AM 73.0 °F - 64.9 °F 76% 29.78 in 10.0 mi WSW 5.8 mph - N/A   Scattered Clouds
9:56 AM 75.9 °F - 66.0 °F 71% 29.78 in 10.0 mi WSW 6.9 mph - N/A   Partly Cloudy
10:56 AM 78.1 °F - 66.9 °F 68% 29.76 in 10.0 mi SW 8.1 mph - N/A   Partly Cloudy
11:56 AM 80.1 °F 82.1 °F 66.0 °F 62% 29.75 in 10.0 mi WSW 9.2 mph - N/A   Clear
12:56 PM 78.1 °F - 68.0 °F 71% 29.75 in 10.0 mi SW 8.1 mph - N/A   Partly Cloudy
1:56 PM 82.0 °F 83.8 °F 64.9 °F 56% 29.73 in 10.0 mi SW 11.5 mph 21.9 mph N/A   Mostly Cloudy
2:56 PM 80.1 °F 82.3 °F 66.9 °F 64% 29.72 in 10.0 mi SW 8.1 mph - N/A   Partly Cloudy
3:56 PM 77.0 °F - 68.0 °F 74% 29.70 in 10.0 mi South 4.6 mph - N/A   Clear
4:16 PM 71.6 °F - 62.6 °F 73% 29.72 in 10.0 mi North 8.1 mph 19.6 mph N/A Thunderstorm Scattered Clouds
4:40 PM 66.2 °F - 64.4 °F 94% 29.72 in 1.8 mi West 33.4 mph 40.3 mph 0.16 in Rain , Thunderstorm Heavy Thunderstorms and Rain
4:56 PM 64.0 °F - 60.1 °F 87% 29.72 in 1.0 mi NW 8.1 mph 38.0 mph 0.79 in Rain , Thunderstorm Heavy Thunderstorms and Rain
5:00 PM 64.4 °F - 60.8 °F 88% 29.74 in 2.0 mi Variable 6.9 mph - 0.02 in Rain , Thunderstorm Heavy Thunderstorms and Rain
5:17 PM 64.4 °F - 60.8 °F 88% 29.74 in 7.0 mi South 10.4 mph 17.3 mph 0.02 in Rain , Thunderstorm Light Thunderstorms and Rain
5:34 PM 66.2 °F - 60.8 °F 83% 29.71 in 10.0 mi SE 10.4 mph - 0.03 in Rain , Thunderstorm Light Rain
5:56 PM 64.9 °F - 62.1 °F 90% 29.75 in 2.0 mi SE 5.8 mph - 0.15 in Rain , Thunderstorm Thunderstorms and Rain
6:11 PM 64.4 °F - 62.6 °F 94% 29.76 in 10.0 mi SW 6.9 mph - 0.01 in Rain , Thunderstorm Light Thunderstorms and Rain
6:31 PM 66.2 °F - 62.6 °F 88% 29.76 in 10.0 mi South 13.8 mph - 0.01 in Rain , Thunderstorm Light Rain
6:43 PM 64.4 °F - 62.6 °F 94% 29.80 in 9.0 mi WSW 13.8 mph 19.6 mph 0.01 in Rain , Thunderstorm Light Thunderstorms and Rain
6:56 PM 64.9 °F - 62.1 °F 90% 29.73 in 3.0 mi NE 6.9 mph - 0.06 in Rain , Thunderstorm Heavy Thunderstorms and Rain
7:16 PM 64.4 °F - 62.6 °F 94% 29.72 in 10.0 mi SSE 5.8 mph - 0.02 in Rain Light Rain
7:56 PM 62.1 °F - 60.1 °F 93% 29.69 in 10.0 mi SSW 4.6 mph - 0.02 in Rain Light Rain
8:56 PM 63.0 °F - 61.0 °F 93% 29.67 in 10.0 mi SSW 8.1 mph - 0.00 in Rain Light Rain
9:56 PM 64.0 °F - 62.1 °F 93% 29.70 in 10.0 mi WSW 5.8 mph - 0.00 in   Clear
10:56 PM 64.0 °F - 63.0 °F 96% 29.70 in 10.0 mi WSW 8.1 mph - N/A   Mostly Cloudy
11:56 PM 64.9 °F - 64.0 °F 97% 29.71 in 10.0 mi West 5.8 mph - N/A   Clear